Regional Weather Roundup
Issued by NWS Wakefield, VA

Home | Current Version | Previous Version | Text Only | Print | Product List | Glossary On
Versions: 1 2 3 4 5 6 7 8 9 10 11 12 13 14 15 16 17 18 19 20 21 22 23 24 25 26 27 28 29 30 31 32 33 34 35 36 37 38 39 40 41 42 43 44 45 46 47 48
000
ASUS41 KAKQ 140115
RWRAKQ

REGIONAL WEATHER ROUNDUP
NATIONAL WEATHER SERVICE WAKEFIELD VA
800 PM EST SAT FEB 13 2016

Note: "fair" indicates few or no clouds below 12,000 feet with no
significant weather and/or obstructions to visibility. * = Denotes
station may not report precipitation (e.g., rain,snow,etc.),
thunder or fog.

VAZ042-051-052>054-056-140200-
NORTHERN VIRGINIA

CITY           SKY/WX    TMP DP  RH WIND       PRES   REMARKS
WASH NATIONAL  FAIR      18  -6  34 NW15G29   30.44R WCI   4
DULLES         FAIR      15  -6  39 NW17      30.42R WCI  -1
FORT BELVOIR   FAIR      17  -8  32 NW13G23   30.44R WCI   4
QUANTICO       FAIR      19  -7  31 N14G23    30.46R WCI   6
FREDERICKSBRG* FAIR      19  -4  37 N9        30.44R
STAFFORD*      FAIR      16  -6  37 NW13      30.47R WCI   2
WARRENTON      FAIR      17  -1  45 CALM      30.42R
CULPEPER*      FAIR      16  -7  36 NW5       30.44R
MANASSAS*      NOT AVBL
LEESBURG*      FAIR      18   0  45 NW12G22   30.42R WCI   5
WINCHESTER     FAIR      14  -4  44 NW20      30.39R WCI  -3
FRONT ROYAL*   FAIR      14  -6  41 NW9       30.39R
LURAY*         FAIR      14  -6  41 W6G18     30.39R
$$

VAZ048-049-060>072-079>083-140200-
CENTRAL AND SOUTH CENTRAL VIRGINIA

CITY           SKY/WX    TMP DP  RH WIND       PRES   REMARKS
RICHMOND       FAIR      20  -5  33 N15       30.40R WCI   6
CHESTERFIELD*  FAIR      21  -9  25 N14G21    30.40R WCI   8
PETERSBURG*    FAIR      25 -15  16 N7        30.41R
HANOVER        FAIR      20  -8  28 VRB7      30.42R
TAPPAHANNOCK*  FAIR      20  -5  32 NW9       30.41R
QUINTON*       FAIR      21  -6  30 N5        30.40R
CHARLOTTSVILLE FAIR      17  -8  32 N6        30.40R
GORDONSVILLE*  FAIR      18  -6  34 NW5       30.41R
ORANGE*        FAIR      19  -6  32 W8        30.43R
LOUISA*        FAIR      18  -4  38 N5        30.39R
BUMPASS*       FAIR      19  -3  37 NW5       30.40R
FARMVILLE*     FAIR      23  -9  24 CALM      30.39R
CREWE*         FAIR      22  -5  30 NW6       30.38R
FORT PICKETT*  FAIR      22  -8  26 W7        30.38R
CHASE CITY*    FAIR      22  -6  28 W7        30.39R
CLARKSVILLE*   FAIR      23  -4  30 NW7       30.40R
SOUTH HILL*    FAIR      23  -4  30 NW5       30.45R
LAWRENCEVILLE* FAIR      24  -4  29 W5        30.38R
EMPORIA*       FAIR      25  -4  28 CALM      30.41R
$$

VAZ088>098-140200-
SOUTHEAST VIRGINIA

CITY           SKY/WX    TMP DP  RH WIND       PRES   REMARKS
NORFOLK        FAIR      26  -1  31 N13       30.36R WCI  15
VIRGINIA BEACH FAIR      29   4  34 N18G25    30.35R WCI  16
NORFOLK NAVAL  FAIR      25   0  33 N17       30.39R WCI  12
WEST POINT*    FAIR      21  -7  27 NW9G16    30.42R
SALUDA*        FAIR      21  -1  38 N14G21    30.40R WCI   8
NEWPORT NEWS   FAIR      23  -3  32 N13G20    30.38R WCI  11
LANGLEY AFB    FAIR      23  -5  29 NW23      30.37R WCI   8
FORT EUSTIS    FAIR      24  -1  33 N13G20    30.37R WCI  12
WILLIAMSBURG*  FAIR      25   0  33 N7G24     30.40R
HR EXEC AP*    FAIR      27   0  31 N6        30.38R
FRANKLIN*      FAIR      26  -3  28 NW3       30.39R
US460-WAKEFLD  FAIR      25  -5  26 VRB7      30.39R
$$

VAZ020-022-025-037-045-140200-
WEST CENTRAL AND SOUTHWEST VIRGINIA

CITY           SKY/WX    TMP DP  RH WIND       PRES   REMARKS
STAUNTON*      FAIR      18  -7  32 NW9       30.39R
WAYNESBORO*    FAIR      13 -12  31 NW17G26   30.33R WCI  -4
HOT SPRINGS VA FAIR       4  -8  57 NW17G31   30.10R WCI -16
LYNCHBURG      FAIR      18  -8  31 NW8       30.39R
DANVILLE       FAIR      23  -2  33 NW8       30.42R
SOUTH BOSTON*  FAIR      22  -6  29 NW5       30.41R
MARTINSVILLE   FAIR      18  -4  37 N6        30.43R
ROANOKE        FAIR      17  -6  35 NW12      30.40R WCI   4
BLACKSBURG     FAIR      13   0  54 NW12G18   30.35R WCI   0
DUBLIN*        FAIR      15   0  51 W10G20    30.35R WCI   2
MARION*        FAIR      14   0  52 W14       30.33R WCI  -1
HILLSVILLE*    FAIR      12  -1  54 NW10      30.26R WCI  -1
RICHLANDS*     FAIR      11  -3  52 NW6       30.32S
WISE*          FAIR      14  -4  44 NW3       30.34S
ABINGDON*      FAIR      18   0  44 N7        30.37R
$$

MDZ021>025-VAZ099-100-140200-
SOUTHERN MARYLAND AND THE DELMARVA PENINSULA

CITY           SKY/WX    TMP DP  RH WIND       PRES   REMARKS
PATUXENT RIVER MOCLDY    19  -6  33 NW20G25   30.40R WCI   3
BAY BRIDGE APT   N/A     19  -4  35 NW14G22   30.40R WCI   6
LEONARDTOWN    CLEAR     19  -8  30 MISG        N/A
DOVER          PTCLDY    17  -3  42 W14G21    30.35R WCI   2
GEORGETOWN     PTCLDY    17   0  47 NW14G24   30.37R WCI   3
EASTON         MOCLDY    19  -4  35 NW23G40   30.42  WCI   2
CAMBRIDGE      MOCLDY    19  -6  32 NW17G26   30.38R WCI   4
SALISBURY      CLOUDY    19  -2  39 NW13G23   30.37R WCI   6
OCEAN CITY     CLEAR     17   3  54 N13       30.37R WCI   4
WALLOPS ISLAND FAIR      19  -2  39 NW14      30.38R WCI   6
ACCOMACK*      FAIR      21  -4  33 NW15G30   30.38R WCI   8
$$

NCZ012>017-030>032-140200-
NORTH CENTRAL AND EASTERN NORTH CAROLINA

CITY           SKY/WX    TMP DP  RH WIND       PRES   REMARKS
ROANOKE RAPIDS FAIR      27   0  31 NW8G16    30.39R
RALEIGH        CLEAR     27  -3  27 NW3       30.40R
ELIZABETH CITY CLEAR     26   4  38 NW9       30.36R
AHOSKIE*       CLEAR     27  -2  29 CALM      30.39R
EDENTON*       CLEAR     30   4  32 NW9       30.38R
CURRITUCK*     CLEAR     28   3  35 NW7       30.36R
KILL DEVIL HLS CLEAR     28   3  34 NW6       30.33R
MANTEO         PTCLDY    29   4  34 N12G17    30.35R WCI  19
CAPE HATTERAS  CLEAR     31   4  31 NW16G28   30.34R WCI  20
TARBORO*       FAIR      28   1  31 NW12      30.40R WCI  18
GOLDSBORO      CLEAR     30   0  27 NW5       30.37R
WASHINGTON     CLEAR     27   4  37 NW5       30.38R
GREENVILLE     CLEAR     30   3  31 NW5       30.38S
NEW BERN       CLEAR     28   9  44 NW3       30.39R
WILMINGTON     CLEAR     32   8  36 N8        30.38R
$$

VAZ048-140200-
ELSEWHERE

CITY           SKY/WX    TMP DP  RH WIND       PRES   REMARKS
HARRISBURG PA  MOCLDY    14  -2  49 NW22G28   30.36R WCI  -4
BALTIMORE      PTCLDY    15  -3  44 W20G25    30.39R WCI  -2
ANNAPOLIS      CLEAR     18   1  47 NW17G26   30.41R WCI   3
ANDREWS AFB    FAIR      16  -6  36 NW16G25   30.39R WCI   1
PHILADELPHIA   PTCLDY    15 -12  29 NW15G22   30.36R WCI   0
HENDERSON NC   CLEAR     24  -6  26 NW7       30.39R
GREENSBORO     CLEAR     24  -4  29 NW10      30.38R WCI  14
ROCKY MOUNT    CLEAR     27   0  31 NW13      30.39R WCI  16
$$

VAZ100-140200-
MARINE

STATION/POSITION TIME  TEMP    WIND        PRES    WAVE   SWELL
                       AIR SEA DIR/SP/G            HT/PER HT/PER
                 (UTC) (F)     (DEG/KT/KT) (MB)    (FT/S) (FT/S)
BRANDYWINE LGT   0000   18                 1027.0R
CAPE MAY NJ      0000   18 33              1026.8R
LEWES DE         0000   19 36              1027.2R
15NM E FENWICK I 0050   21 43              1027.1R   6/ 6
OCEAN-CITY-INLET 0000   20 35              1026.7R
WACHAPREAGUE VA  0000   22 35              1027.8R
THOMAS POINT MD  0100   17 35  320/ 20/ 25 1030.0R
GOOSES REEF MD   0000   21 37  300/ 21/ 29 1029.4R   3/ 4
COVE POINT MD    0000   19                 1029.4R
SOLOMONS ISLAND  0000   21 38                N/A
BISHOPS HEAD MD  0000   20 31              1027.7R
PINEY POINT MD   0000          330/ 27/ 33   N/A
POTOMAC MD       0000   23 38  340/ 23/ 29 1027.5R   4/ 4
CAMBRIDGE MD     0000   20 35              1027.7R
LEWISETTA VA     0000   21 35              1028.9R
RAPPAHANNOCK LGT 0000                      1027.8R
STINGRAY PT      0000   24 39  340/ 17/ 23 1028.2R   2/ 3
YORK RVR RNG VA  0000   26                 1027.1R
YORKTOWN VA      0000   26 40              1027.8R
JAMESTOWN VA     0000   25 40  350/ 10/ 14   N/A     1
DOMINION TERM VA 0000   28                 1027.3R
KIPTOPEKE VA     0000      36                N/A
CHES BAY BRIDGE  0000   28 40              1027.0R
CAPE HENRY VA    0000   28                   N/A
CHESAPEAKE LGHT  0000   27     350/ 24/ 26 1027.3R
WILLOUBY STN VA  0000   27                 1028.1R
CAPE HENRY BUOY  0028      43                N/A     5/ 5
1ST LANDING BUOY 0000      40                N/A     3/ 3
CAPE CHARLES BUO 0026      41                N/A     4/ 5   2/10
OFFSHORE WE BUOY 0021      45                N/A     7/ 6   2/10
64NM E OF VA BCH 0050   30 49  320/ 25/ 31 1026.1R   9/ 7   2/11
DUCK PIER NC     0000   30                 1026.1R
44100 DUCK FRF   0024      45                N/A     5/ 6
44056 DUCK FRF   0011      41                N/A     4/ 6
OREGON INLET NC  0000   28 39              1026.6R
HATTERAS NC      0000   33 43              1026.2R
DIAMOND SHLS NC  0050   36 72  330/ 21/ 29 1026.8R   5/ 4   2/10
$$
  C1F1C2F2C3F3C4F4C5F5C6F6C7F7C8M1C9!


USA.gov is the U.S. government's official web portal to all federal, state and local government web resources and services.